Regional Weather Roundup
Issued by NWS Huntsville, AL

Home | Current Version | Previous Version | Text Only | Print | Product List | Glossary On
Versions: 1 2 3 4 5 6 7 8 9 10 11 12 13 14 15 16 17 18 19 20 21 22 23 24 25 26 27 28 29 30 31 32 33 34 35 36 37 38 39 40 41 42 43 44 45 46 47 48 49 50
000
ASUS44 KHUN 280510
RWRHUN

WEATHER ROUNDUP FOR THE TENNESSEE VALLEY
NATIONAL WEATHER SERVICE HUNTSVILLE AL
1200 AM CDT SUN MAY 28 2017

ALZ001>004-280600-
NORTHWEST ALABAMA

CITY           SKY/WX    TMP DP  RH WIND       PRES   REMARKS
COURTLAND HCN    N/A     68 N/A N/A MISG        N/A
RUSSELLVILLE     N/A     75 N/A N/A MISG        N/A
SHOALS AIRPORT TSTM      67  63  87 N13       29.92F
SHOALS TVA RES   N/A     68 N/A N/A MISG        N/A
$$

ALZ005>007-016-280600-
NORTH CENTRAL ALABAMA

CITY           SKY/WX    TMP DP  RH WIND       PRES   REMARKS
CULLMAN AG STN   N/A     75 N/A N/A CALM        N/A
DECATUR AP     HVY RAIN  66  64  93 E8        29.95F
HUNTSVILLE AP  LGT RAIN  67  66  97 E6        29.95F
MERIDIANVILLE  TSTM      63  63 100 CALM      29.96S
REDSTONE ARSN  LGT RAIN  64  63  94 SE6       29.95R FOG
VINEMONT AP    FAIR      75  71  88 S6        29.96S
$$

ALZ008>010-280600-
NORTHEAST ALABAMA

CITY           SKY/WX    TMP DP  RH WIND       PRES   REMARKS
ALBERTVILLE    CLOUDY    70  70 100 NE16G25   29.97R
FORT PAYNE     RAIN      63  59  88 NE3       30.00S
SCOTTSBORO AP  CLOUDY    64  64 100 NE3       29.99F
SCOTTSBORO HCN   N/A     64 N/A N/A MISG        N/A
VALLEY HEAD      N/A     64 N/A N/A MISG        N/A
$$

TNZ076-096-097-280600-
SOUTHEASTERN MIDDLE TENNESSEE

CITY           SKY/WX    TMP DP  RH WIND       PRES   REMARKS
TULLAHOMA      PTCLDY    63  63 100 CALM      29.96F
WINCHESTER     CLOUDY    64  63  94 SE8       29.96R
$$

...SURROUNDING SITES...

CITY           SKY/WX    TMP DP  RH WIND       PRES   REMARKS
ATLANTA        CLOUDY    74  70  87 SW7       29.97F
ANNISTON       CLOUDY    73  71  93 CALM      29.95F
BIRMINGHAM     CLOUDY    79  71  76 S5        29.96R
CHATTANOOGA    CLOUDY    66 N/A N/A SW7       29.98S
CORINTH        DRIZZLE   66  63  88 N9        29.92R
DALTON         LGT RAIN  63  63 100 CALM      29.98F
GADSDEN        CLOUDY    75  72  90 CALM      29.95F
GOLDEN TRNGL   CLEAR     73  68  83 S6        29.83
HALEYVILLE     CLOUDY    75  72  90 S5        29.93S
JACKSON TN     TSTM      65  64  97 NE13      29.98F
MEMPHIS        TSTM      65  63  93 E36G64    29.91F
NASHVILLE      CLOUDY    65  64  97 S8        29.94S
OXFORD MS      FAIR      77  72  83 SW3       29.89R
ROME           RAIN      66  65  96 NE7       29.98R FOG
SAVANNAH       CLOUDY    64  63  94 N8        29.91R FOG
SELMER         CLOUDY    64  63  94 N14G23    29.98R FOG
TUPELO         MOCLDY    80  72  76 S5        29.86S
TUSCALOOSA     CLOUDY    77  72  84 S5        29.90F
$$

...GULF COAST WEATHER...

CITY           SKY/WX    TMP DP  RH WIND       PRES   REMARKS
GULFPORT       CLOUDY    80  77  90 S8        29.94F
PASCAGOULA     CLOUDY    79  75  87 S7        29.95S
MOBILE         PTCLDY    78  74  87 S9        29.96F
GULF SHORES    CLOUDY    77  77 100 S8        29.97S
PENSACOLA      CLOUDY    78  75  90 SW13      29.96F
DESTIN         CLOUDY    81  81 100 SW5       29.98F HX  92
PANAMA CITY    PTCLDY    78  74  90 SW10      29.98F
APPALACHICOLA  MOCLDY    78  77  96 W7        30.00F
$$




USA.gov is the U.S. government's official web portal to all federal, state and local government web resources and services.